Notices

What's New in latest Release from April 7th, 2021:

- Updated Glossary, including Speed of Maximum Gust, and Total Hourly Precipitation

- Updated national and regional climate services offices contacts and prices information

- Addition of station inventory lists for 1981-2010, 1971-2000, and 1961-1990 Normals.

If you haven't already, please take our survey and provide feedback about our website: https://eccc.sondage-survey.ca/f/LanguageSelection.aspx?s=442ca660-fcf1-47c0-95a9-59707d6fd709

Hourly Data Report for May 12, 2021

STE-ANNE-DE-BELLEVUE 1
QUEBEC
Current Station Operator: ECCC - MSC

45°25'38.000" N
73°55'45.000" W
39.00 m
702FHL8
71377
WVQ

Download Data

Hourly Data (May 2021)
Hourly Data Report for May 12, 2021
TIME
LST
Temp Definition
°C
Dew Point Definition
°C
Rel Hum Definition
%
Precip. Amount Definition
mm

Wind Dir Definition
10's deg

Wind Spd Definition
km/h
Visibility Definition
km
Stn Press Definition
kPa
Hmdx Definition


Wind Chill Definition


Weather Definition


00:00 6.1 4.7 91 0.0 27 16   101.00     LegendNANA
01:00 6.6 5.1 90 0.0 27 12   101.02     LegendNANA
02:00 7.1 5.4 89 0.0 27 10   101.03     LegendNANA
03:00 7.1 5.2 88 0.0 27 13   101.08     LegendNANA
04:00 5.9 4.6 91 0.0 26 13   101.17     LegendNANA
05:00 6.4 4.5 88 0.0 28 10   101.21     LegendNANA
06:00 7.9 4.4 79 0.0 27 11   101.30     LegendNANA
07:00 9.6 4.6 71 0.0 27 7   101.37     LegendNANA
08:00 10.8 4.2 64 0.0 25 7   101.45     LegendNANA
09:00 13.2 2.1 47 0.0 29 6   101.44     LegendNANA
10:00 14.9 2.3 43 0.0 28 16   101.45     LegendNANA
11:00 14.1 3.6 49 0.0 28 12   101.45     LegendNANA
12:00 15.2 1.7 40 0.0 29 16   101.46     LegendNANA
13:00 15.9 1.1 37 0.0 31 15   101.45     LegendNANA
14:00 16.7 -1.7 28 0.0 35 14   101.44     LegendNANA
15:00 16.7 -0.4 31 0.0 27 7   101.43     LegendNANA
16:00 16.2 -1.2 30 0.0 34 5   101.45     LegendNANA
17:00 15.7 0.8 36 0.0 24 5   101.47     LegendNANA
18:00 16.6 -1.4 29 0.0 4 4   101.49     LegendNANA
19:00 14.6 0.0 37 0.0 31 6   101.54     LegendNANA
20:00 12.2 0.2 44 0.0 32 5   101.57     LegendNANA
21:00 11.5 1.6 50 0.0 28 9   101.61     LegendNANA
22:00 11.8 -0.3 43 0.0 27 6   101.62     LegendNANA
23:00 10.6 -1.8 42 0.0 31 7   101.63     LegendNANA

Notes on Data Quality.

Legend

  • E = Estimated
  • M = Missing
  • NA = Not Available*
  • [empty] = Indicates an unobserved value
Date modified: